Location: New Frontier Mobile Home Park
(32.8448°N, 116.9675°W)
Time: 23:14:06
(UTC+00:00)

Cosmos 1842 Rocket - Pass Details

Date: 14 July 2020
Orbit: 604 x 635 km, 82.5° (Epoch: 05 August)

Event Time Altitude Azimuth Distance (km) Brightness Sun altitude
Rises 04:54:20 0° 354° (N) 2,863 7.8 -20.7°
Reaches altitude 10° 04:56:34 10° 356° (N) 1,955 6.8 -21.1°
Maximum altitude 05:00:53 81° 84° (E) 616 3.4 -21.7°
Enters shadow 05:01:27 66° 153° (SSE) 661 3.4 -21.8°
